This demonstration page uses our WeatherBlox Daily Observations layout. Learn more.

Left ArrowRight Arrow

47.50024, -111.30081

Hourly Observations for January 16, 2016

Temp ( °F °C ) Dew Point ( °F °C ) Humidity (%) Winds ( mph kmh ) Pressure ( in mb ) Visibility ( mi km ) Precip ( " mm )
12:53 am 00:53 Cloudy 15 -9.4 12 -11.1 88 88 ENE 8 13 30.15 1021 10 16 0.00 0.00
1:53 am 01:53 Cloudy 14 -10 12 -11.1 92 92 ENE 6 9 30.16 1022 10 16 0.00 0.00
2:53 am 02:53 Cloudy 14 -10 11 -11.7 88 88 E 5 7 30.17 1022 10 16 0.00 0.00
3:00 am 03:00 Cloudy 14 -10 10 -12 85 85 E 5 7 30.24 1024 10 16 0.00 0.00
3:32 am 03:32 Cloudy 14 -10 10 -12 85 85 E 3 6 30.24 1024 10 16 0.00 0.00
3:53 am 03:53 Cloudy 14 -10 10 -12.2 84 84 E 6 9 30.16 1022 10 16 0.00 0.00
4:53 am 04:53 Cloudy 14 -10 11 -11.7 88 88 ENE 8 13 30.17 1022 10 16 0.00 0.00
5:53 am 05:53 Cloudy 14 -10 11 -11.7 88 88 undefined N/A 30.19 1022 10 16 0.00 0.00
6:08 am 06:08 Cloudy 14 -10 12 -11 92 92 undefined N/A 30.27 1025 7 11 0.00 0.00
6:24 am 06:24 Cloudy with Mist and Fog 14 -10 12 -11 92 92 undefined N/A 30.27 1025 2 3 0.00 0.00
6:36 am 06:36 Cloudy with Mist and Fog 14 -10 12 -11.1 92 92 undefined N/A 30.27 1025 3 4 0.00 0.00
6:53 am 06:53 Cloudy 13 -10.6 12 -11.1 96 96 E 7 11 30.19 1022 7 11 0.00 0.00
7:53 am 07:53 Cloudy with Mist and Fog 13 -10.6 11 -11.7 92 92 ENE 8 13 30.19 1023 3 5 0.00 0.03
8:53 am 08:53 Cloudy 12 -11.1 10 -12.2 92 92 ENE 8 13 30.20 1023 8 13 0.00 0.00
9:08 am 09:08 Cloudy 12 -11 10 -12 92 92 E 7 11 30.27 1025 10 16 0.00 0.00
9:53 am 09:53 Cloudy 13 -10.6 10 -12.2 88 88 E 7 11 30.20 1023 7 11 0.00 0.00
10:53 am 10:53 Cloudy 14 -10 11 -11.7 88 88 ENE 8 13 30.19 1022 10 16 0.00 0.00
11:53 am 11:53 Cloudy 15 -9.4 12 -11.1 88 88 ENE 10 17 30.17 1022 10 16 0.00 0.00
12:53 pm 12:53 Cloudy 14 -10 10 -12.2 84 84 ENE 12 19 30.16 1022 10 16 0.00 0.00
1:53 pm 13:53 Cloudy 13 -10.6 10 -12.2 88 88 NE 10 17 30.16 1021 10 16 0.00 0.00
2:41 pm 14:41 Cloudy 13 -10.6 9 -12.8 84 84 NE 10 17 30.21 1023 10 16 0.00 0.00
2:53 pm 14:53 Cloudy 13 -10.6 9 -12.8 84 84 NE 10 17 30.17 1022 10 16 0.00 0.00
3:53 pm 15:53 Cloudy 13 -10.6 9 -12.8 84 84 NE 12 19 30.18 1022 10 16 0.00 0.00
4:27 pm 16:27 Cloudy with Light Snow 13 -10.6 9 -12.8 84 84 ENE 10 17 30.24 1024 2 2 0.00 0.03
4:37 pm 16:37 Cloudy with Light Snow 13 -10.6 9 -12.8 84 84 ENE 10 17 30.24 1024 1 2 0.00 0.03
4:48 pm 16:48 Cloudy with Light Snow 12 -11 9 -13 85 85 ENE 10 17 30.24 1024 1 2 0.00 0.00
4:53 pm 16:53 Cloudy with Light Snow 13 -10.6 9 -12.8 84 84 ENE 12 19 30.18 1022 1 2 0.00 0.03
5:14 pm 17:14 Cloudy with Light Snow 12 -11 9 -13 85 85 ENE 12 19 30.24 1024 2 3 0.00 0.00
5:17 pm 17:17 Cloudy with Light Snow 12 -11.1 9 -12.8 87 87 ENE 12 19 30.24 1024 3 4 0.01 0.25
5:20 pm 17:20 Cloudy with Light Snow 12 -11 9 -13 85 85 ENE 12 19 30.24 1024 4 6 0.00 0.00
5:53 pm 17:53 Cloudy with Light Snow 12 -11.1 9 -12.8 87 87 ENE 9 15 30.19 1022 5 8 0.01 0.25
6:21 pm 18:21 Cloudy with Light Snow 12 -11.1 9 -12.8 87 87 ENE 8 13 30.24 1024 3 4 0.00 0.03
6:31 pm 18:31 Cloudy with Light Snow 12 -11.1 9 -12.8 87 87 ENE 9 15 30.24 1024 3 5 0.00 0.03
6:53 pm 18:53 Cloudy with Light Snow 12 -11.1 8 -13.3 84 84 ENE 9 15 30.19 1022 3 5 0.00 0.03
7:53 pm 19:53 Cloudy with Light Snow 11 -11.7 8 -13.3 88 88 ENE 8 13 30.19 1022 3 5 0.00 0.03
8:10 pm 20:10 Cloudy with Light Snow 10 -12 9 -13 92 92 ENE 8 13 30.27 1025 2 3 0.00 0.00
8:17 pm 20:17 Cloudy with Light Snow 11 -11.7 8 -13.3 88 88 E 8 13 30.27 1025 2 3 0.01 0.25
8:36 pm 20:36 Cloudy with Light Snow 10 -12 9 -13 92 92 ENE 7 11 30.24 1024 2 3 0.00 0.00
8:46 pm 20:46 Cloudy with Light Snow 10 -12 9 -13 92 92 ENE 6 9 30.24 1024 1 2 0.00 0.00
8:53 pm 20:53 Mostly Cloudy with Light Snow 11 -11.7 8 -13.3 88 88 E 7 11 30.18 1022 1 1 0.02 0.51
8:58 pm 20:58 Mostly Cloudy with Light Snow 10 -12 9 -13 92 92 E 7 11 30.24 1024 1 2 0.00 0.00
9:29 pm 21:29 Cloudy with Light Snow 11 -11.7 8 -13.3 88 88 E 7 11 30.24 1024 1 2 0.02 0.51
9:53 pm 21:53 Cloudy with Light Snow 11 -11.7 8 -13.3 88 88 NE 8 13 30.18 1022 2 2 0.02 0.51
10:00 pm 22:00 Cloudy with Light Snow 10 -12 9 -13 92 92 ENE 7 11 30.24 1024 1 2 0.00 0.00
10:32 pm 22:32 Cloudy with Light Snow 10 -12 7 -14 85 85 ENE 8 13 30.24 1024 2 2 0.00 0.00
10:49 pm 22:49 Cloudy with Light Snow 10 -12 7 -14 85 85 ENE 6 9 30.24 1024 2 2 0.03 0.76
10:53 pm 22:53 Cloudy with Light Snow 10 -12.2 7 -13.9 87 87 ENE 8 13 30.17 1022 2 3 0.03 0.76
11:23 pm 23:23 Cloudy with Light Snow 9 -12.8 6 -14.4 88 88 ENE 8 13 30.24 1024 2 3 0.01 0.25
11:35 pm 23:35 Cloudy with Light Snow 9 -12.8 6 -14.4 88 88 ENE 8 13 30.24 1024 2 3 0.01 0.25
11:53 pm 23:53 Cloudy with Light Snow 9 -12.8 6 -14.4 88 88 E 8 13 30.16 1021 5 8 0.01 0.25

Powered by AerisWeather